YUXING-3 06

导读

驭星三号06星(YUXING-3 06,NORAD编号68199,别称湖科大二号),由中国湖南科技大学与苏州三垣航天科技有限公司联合研发,是我国商业航天领域首颗配置柔性机械臂的在轨燃料加注技术试验卫星。该卫星于2026年3月16日在酒泉卫星发射中心由快舟十一号Y7运载火箭发射,运行于高度540公里、倾角97.5°的太阳同步轨道,搭载光学相机与仿生柔性机械臂,已完成在轨测试,将开展对地遥感观测和全流程在轨服务技术验证,为未来空间燃料补给、在轨维护等场景提供技术支撑。

Basic Information
目录编号:
68199
目录名称:
YUXING-3 06
国际标识:
2026-052B
轨道中心:
EARTH
卫星名称:
YUXING-3 06
卫星全名:
YUXING-3 06
卫星状态:
在轨 (已飞行89 天)
发射日期:
2026-03-16 UTC
国别 :
中国 (CN)
星等 :
--
Orbit Information
数据来源 国际轨道数据
星历时间: 2026-06-13T01:26:32+0800
15小时前
查看轨道信息
半长轴: 6911.836km
偏心率: 0.0011479
轨道倾角: 97.534°
近地点辐角 330.929°
升交点赤经 238.577°
平近点角 29.130°
近地点: 525.764km
远地点: 541.634km
周期: 95.312分钟
每日圈数: 15.108199
Detailed Information
使用方式:
暂无
2D Orbit Map
3D Orbit Map
Orbit Altitude Analysis Chart
Orbit Inclination Analysis Chart
Orbit Comprehensive Analysis Chart
View Comprehensive Chart